KC3BHK-2 Weather Reports


Display with metric or nautical units.
time (UTC)temp
F
wind
direction
speed
MPH
gust
MPH
rain 1hr
in
rain 24hr
in
rain mn
in
humidity
%
barometer
mb
20260506134947 61 159 7.0 11.0 0.00 0.00 0.00
20260506134442 61 156 8.0 12.0 0.00 0.00 0.00
20260506133432 60 146 5.0 12.0 0.00 0.00 0.00
20260506132928 60 158 11.0 12.0 0.00 0.00 0.00
20260506132423 60 160 9.0 12.0 0.00 0.00 0.00
20260506131915 59 135 9.0 13.0 0.00 0.00 0.00
20260506131410 60 162 6.0 11.0 0.00 0.00 0.00
20260506130906 60 174 6.0 10.0 0.00 0.00 0.00
20260506130401 61 167 6.0 9.0 0.00 0.00 0.00
20260506125856 60 176 7.0 10.0 0.00 0.00 0.00
20260506125351 60 132 9.0 8.0 0.00 0.00 0.00
20260506124843 60 170 4.0 8.0 0.00 0.00 0.00
20260506124338 60 190 5.0 8.0 0.00 0.00 0.00
20260506123834 61 217 5.0 7.0 0.00 0.00 0.00
20260506123329 60 163 4.0 8.0 0.00 0.00 0.00
20260506122824 59 145 3.0 6.0 0.00 0.00 0.00
20260506122319 60 132 3.0 5.0 0.00 0.00 0.00
20260506121812 60 127 3.0 6.0 0.00 0.00 0.00
20260506121307 60 173 5.0 7.0 0.00 0.00 0.00
20260506120802 60 132 4.0 11.0 0.00 0.00 0.00
20260506120257 59 167 5.0 8.0 0.00 0.00 0.00
20260506115753 61 174 4.0 10.0 0.00 0.00 0.00
20260506115248 61 167 7.0 8.0 0.00 0.00 0.00
20260506114740 60 180 4.0 10.0 0.00 0.00 0.00
20260506114235 62 160 5.0 9.0 0.00 0.00 0.00
20260506113730 61 158 5.0 9.0 0.00 0.00 0.00
20260506113226 61 191 6.0 10.0 0.00 0.00 0.00
20260506112720 62 170 5.0 10.0 0.00 0.00 0.00
20260506112215 63 156 6.0 11.0 0.00 0.00 0.00
20260506111707 63 174 6.0 7.0 0.00 0.00 0.00
20260506111202 61 149 5.0 9.0 0.00 0.00 0.00
20260506110658 62 124 6.0 8.0 0.00 0.00 0.00
20260506110153 62 166 7.0 11.0 0.00 0.00 0.00
20260506105648 62 181 6.0 7.0 0.00 0.00 0.00
20260506105143 62 169 5.0 9.0 0.00 0.00 0.00
20260506104635 63 145 3.0 11.0 0.00 0.00 0.00
20260506104131 64 153 4.0 10.0 0.00 0.00 0.00
20260506103626 64 184 5.0 9.0 0.00 0.00 0.00
20260506103121 63 174 4.0 9.0 0.00 0.00 0.00
20260506102616 64 181 6.0 9.0 0.00 0.00 0.00
20260506102111 62 165 7.0 12.0 0.00 0.00 0.00
20260506101604 62 148 10.0 12.0 0.00 0.00 0.00
20260506101059 63 173 6.0 10.0 0.00 0.00 0.00
20260506100554 63 205 6.0 13.0 0.00 0.00 0.00
20260506100049 64 160 10.0 13.0 0.00 0.00 0.00
20260506095544 65 212 9.0 13.0 0.00 0.00 0.00
20260506095040 63 170 9.0 12.0 0.00 0.00 0.00
20260506094532 65 176 9.0 12.0 0.00 0.00 0.00
20260506094027 64 162 9.0 18.0 0.00 0.00 0.00
20260506093522 66 173 9.0 12.0 0.00 0.00 0.00
20260506093018 67 210 6.0 16.0 0.00 0.00 0.00
20260506092513 66 153 11.0 18.0 0.00 0.00 0.00
20260506092008 66 165 11.0 20.0 0.00 0.00 0.00
20260506091501 67 190 10.0 13.0 0.00 0.00 0.00
20260506090956 67 122 10.0 20.0 0.00 0.00 0.00
20260506090451 67 166 10.0 17.0 0.00 0.00 0.00
20260506085947 66 162 7.0 15.0 0.00 0.00 0.00
20260506085442 67 173 9.0 18.0 0.00 0.00 0.00
20260506084936 68 169 10.0 15.0 0.00 0.00 0.00
20260506084428 68 142 6.0 17.0 0.00 0.00 0.00
20260506083924 67 141 8.0 14.0 0.00 0.00 0.00
20260506083419 67 155 6.0 13.0 0.00 0.00 0.00
20260506082914 67 172 9.0 15.0 0.00 0.00 0.00
20260506082410 66 152 7.0 14.0 0.00 0.00 0.00
20260506081905 67 187 7.0 17.0 0.00 0.00 0.00
20260506081357 68 172 8.0 13.0 0.00 0.00 0.00
20260506080852 66 146 8.0 13.0 0.00 0.00 0.00
20260506080348 66 183 8.0 14.0 0.00 0.00 0.00
20260506073315 67 155 5.0 13.0 0.00 0.00 0.00
20260506072810 66 143 9.0 13.0 0.00 0.00 0.00
20260506072306 67 150 6.0 13.0 0.00 0.00 0.00
20260506071800 67 177 7.0 15.0 0.00 0.00 0.00
20260506071252 68 162 4.0 16.0 0.00 0.00 0.00
20260506070748 68 134 10.0 17.0 0.00 0.00 0.00
20260506070243 68 145 7.0 15.0 0.00 0.00 0.00
20260506062203 68 150 5.0 13.0 0.00 0.00 0.00
20260506061657 67 165 8.0 12.0 0.00 0.00 0.00
20260506061150 67 173 3.0 14.0 0.00 0.00 0.00
20260506060645 69 186 7.0 9.0 0.00 0.00 0.00
20260506060140 68 204 7.0 11.0 0.00 0.00 0.00
20260506051046 68 131 6.0 9.0 0.00 0.00 0.00
20260506050541 69 135 9.0 12.0 0.00 0.00 0.00
20260506045026 69 155 6.0 12.0 0.00 0.00 0.00
20260506044014 69 149 7.0 15.0 0.00 0.00 0.00
20260506043509 69 176 9.0 12.0 0.00 0.00 0.00
20260506043004 68 195 10.0 12.0 0.00 0.00 0.00
20260506042459 69 173 9.0 10.0 0.00 0.00 0.00
20260506041955 69 131 5.0 14.0 0.00 0.00 0.00
20260506041450 69 173 8.0 11.0 0.00 0.00 0.00
20260506040942 69 190 5.0 9.0 0.00 0.00 0.00
20260506040438 68 134 5.0 10.0 0.00 0.00 0.00
20260506035933 69 143 7.0 11.0 0.00 0.00 0.00
20260506035428 69 156 4.0 12.0 0.00 0.00 0.00
20260506034924 69 177 4.0 16.0 0.00 0.00 0.00
20260506034419 69 159 9.0 10.0 0.00 0.00 0.00
20260506033912 69 141 8.0 14.0 0.00 0.00 0.00
20260506033405 69 138 9.0 11.0 0.00 0.00 0.00
20260506032900 69 179 7.0 11.0 0.00 0.00 0.00
20260506032356 69 132 6.0 9.0 0.00 0.00 0.00
20260506031851 69 132 6.0 9.0 0.00 0.00 0.00
20260506031346 69 183 8.0 10.0 0.00 0.00 0.00
20260506030839 69 143 5.0 12.0 0.00 0.00 0.00
20260506030334 70 148 9.0 10.0 0.00 0.00 0.00
20260506025829 69 183 6.0 10.0 0.00 0.00 0.00
20260506025325 69 179 10.0 10.0 0.00 0.00 0.00
20260506024820 70 172 5.0 9.0 0.00 0.00 0.00
20260506024315 69 148 4.0 12.0 0.00 0.00 0.00
20260506023808 69 179 9.0 11.0 0.00 0.00 0.00
20260506023303 70 174 7.0 11.0 0.00 0.00 0.00
20260506022759 69 159 6.0 12.0 0.00 0.00 0.00
20260506022254 70 155 4.0 11.0 0.00 0.00 0.00
20260506021749 70 183 4.0 9.0 0.00 0.00 0.00
20260506021245 71 163 7.0 11.0 0.00 0.00 0.00
20260506020737 70 170 8.0 8.0 0.00 0.00 0.00
20260506020232 71 121 4.0 9.0 0.00 0.00 0.00
20260506015728 71 162 3.0 8.0 0.00 0.00 0.00
20260506015223 70 143 5.0 10.0 0.00 0.00 0.00
20260506014214 72 167 8.0 11.0 0.00 0.00 0.00
20260506013706 72 143 11.0 8.0 0.00 0.00 0.00
20260506013202 72 141 6.0 11.0 0.00 0.00 0.00
20260506012657 72 153 5.0 10.0 0.00 0.00 0.00
20260506012152 73 155 7.0 9.0 0.00 0.00 0.00
20260506011648 73 143 7.0 9.0 0.00 0.00 0.00
20260506011143 73 149 7.0 12.0 0.00 0.00 0.00
20260506010634 73 153 7.0 12.0 0.00 0.00 0.00
20260506010130 73 167 4.0 10.0 0.00 0.00 0.00
20260506005625 74 193 6.0 13.0 0.00 0.00 0.00
20260506005120 75 181 7.0 13.0 0.00 0.00 0.00
20260506004616 75 160 8.0 12.0 0.00 0.00 0.00
20260506004111 74 122 6.0 11.0 0.00 0.00 0.00
20260506003603 74 187 9.0 14.0 0.00 0.00 0.00
20260506003059 76 193 10.0 13.0 0.00 0.00 0.00
20260506002554 75 172 7.0 14.0 0.00 0.00 0.00
20260506002049 76 166 9.0 15.0 0.00 0.00 0.00
20260506001545 76 170 7.0 14.0 0.00 0.00 0.00
20260506001040 77 180 5.0 16.0 0.00 0.00 0.00
20260506000533 76 174 11.0 14.0 0.00 0.00 0.00
20260506000028 75 159 10.0 17.0 0.00 0.00 0.00
20260505235523 76 163 14.0 14.0 0.00 0.00 0.00
20260505235019 77 158 8.0 16.0 0.00 0.00 0.00
20260505234514 77 156 7.0 17.0 0.00 0.00 0.00
20260505234008 77 150 11.0 14.0 0.00 0.00 0.00
20260505233501 78 177 10.0 14.0 0.00 0.00 0.00
20260505232956 78 176 8.0 17.0 0.00 0.00 0.00
20260505232452 77 169 7.0 15.0 0.00 0.00 0.00
20260505231947 78 188 9.0 17.0 0.00 0.00 0.00
20260505231442 78 172 17.0 18.0 0.00 0.00 0.00
20260505230938 79 153 6.0 19.0 0.00 0.00 0.00
20260505230430 78 174 13.0 25.0 0.00 0.00 0.00
20260505225926 79 173 11.0 21.0 0.00 0.00 0.00
20260505225421 80 127 10.0 15.0 0.00 0.00 0.00
20260505224916 82 127 9.0 16.0 0.00 0.00 0.00
20260505224412 80 159 8.0 16.0 0.00 0.00 0.00
20260505223907 80 153 10.0 16.0 0.00 0.00 0.00
20260505223400 80 198 13.0 19.0 0.00 0.00 0.00
20260505222855 79 115 13.0 20.0 0.00 0.00 0.00
20260505222350 80 165 14.0 15.0 0.00 0.00 0.00
20260505221846 80 160 9.0 15.0 0.00 0.00 0.00
20260505221341 80 233 9.0 17.0 0.00 0.00 0.00
20260505220837 80 221 5.0 21.0 0.00 0.00 0.00
20260505220329 80 167 15.0 17.0 0.00 0.00 0.00
20260505215824 81 167 7.0 19.0 0.00 0.00 0.00
20260505215320 83 167 6.0 16.0 0.00 0.00 0.00
20260505214815 82 208 7.0 15.0 0.00 0.00 0.00
20260505214310 80 211 8.0 17.0 0.00 0.00 0.00
20260505213806 80 136 13.0 16.0 0.00 0.00 0.00
20260505213258 81 186 8.0 18.0 0.00 0.00 0.00
20260505212754 80 173 12.0 22.0 0.00 0.00 0.00
20260505212249 80 150 13.0 28.0 0.00 0.00 0.00
20260505211744 80 214 9.0 24.0 0.00 0.00 0.00
20260505211240 80 165 15.0 24.0 0.00 0.00 0.00
20260505210735 82 156 11.0 24.0 0.00 0.00 0.00
20260505210227 84 184 12.0 26.0 0.00 0.00 0.00
20260505205723 82 235 7.0 21.0 0.00 0.00 0.00
20260505205218 83 177 15.0 18.0 0.00 0.00 0.00
20260505204713 84 146 13.0 22.0 0.00 0.00 0.00
20260505204208 84 218 16.0 27.0 0.00 0.00 0.00
20260505203703 84 174 10.0 20.0 0.00 0.00 0.00
20260505203156 83 186 12.0 21.0 0.00 0.00 0.00
20260505202651 83 181 9.0 24.0 0.00 0.00 0.00
20260505202146 85 194 13.0 25.0 0.00 0.00 0.00
20260505201642 84 190 15.0 27.0 0.00 0.00 0.00
20260505201136 82 197 15.0 21.0 0.00 0.00 0.00
20260505200631 83 169 9.0 25.0 0.00 0.00 0.00
20260505200124 85 218 11.0 24.0 0.00 0.00 0.00
20260505195114 84 162 22.0 24.0 0.00 0.00 0.00
20260505194610 85 146 22.0 19.0 0.00 0.00 0.00
20260505194104 85 120 15.0 19.0 0.00 0.00 0.00
20260505193600 85 124 8.0 28.0 0.00 0.00 0.00
20260505193052 83 131 13.0 19.0 0.00 0.00 0.00
20260505192547 85 165 14.0 25.0 0.00 0.00 0.00
20260505192041 83 129 8.0 23.0 0.00 0.00 0.00
20260505191536 85 174 14.0 21.0 0.00 0.00 0.00
20260505191032 84 191 13.0 19.0 0.00 0.00 0.00
20260505190526 84 131 12.0 19.0 0.00 0.00 0.00
20260505190018 84 210 11.0 20.0 0.00 0.00 0.00
20260505185514 83 176 14.0 23.0 0.00 0.00 0.00
20260505185009 83 167 10.0 20.0 0.00 0.00 0.00
20260505184503 82 163 11.0 27.0 0.00 0.00 0.00
20260505183959 84 163 9.0 22.0 0.00 0.00 0.00
20260505183454 83 174 14.0 22.0 0.00 0.00 0.00
20260505182946 84 124 10.0 20.0 0.00 0.00 0.00
20260505182442 83 159 8.0 16.0 0.00 0.00 0.00
20260505181937 83 208 13.0 15.0 0.00 0.00 0.00
20260505181432 82 198 8.0 20.0 0.00 0.00 0.00
20260505180927 83 183 18.0 16.0 0.00 0.00 0.00
20260505180422 82 163 9.0 18.0 0.00 0.00 0.00
20260505175915 82 190 9.0 16.0 0.00 0.00 0.00
20260505175410 83 231 12.0 20.0 0.00 0.00 0.00
20260505174906 83 190 13.0 20.0 0.00 0.00 0.00
20260505174401 83 239 8.0 16.0 0.00 0.00 0.00
20260505173856 82 167 10.0 19.0 0.00 0.00 0.00
20260505173352 82 195 9.0 20.0 0.00 0.00 0.00
20260505172844 82 148 12.0 17.0 0.00 0.00 0.00
20260505172340 83 191 7.0 19.0 0.00 0.00 0.00
20260505171835 82 146 7.0 18.0 0.00 0.00 0.00
20260505171331 83 219 5.0 21.0 0.00 0.00 0.00
20260505170826 81 208 8.0 14.0 0.00 0.00 0.00
20260505170321 82 193 10.0 21.0 0.00 0.00 0.00
20260505165814 82 183 11.0 17.0 0.00 0.00 0.00
20260505165309 81 197 6.0 20.0 0.00 0.00 0.00
20260505164804 81 197 17.0 17.0 0.00 0.00 0.00
20260505164259 81 239 12.0 15.0 0.00 0.00 0.00
20260505163755 82 190 10.0 19.0 0.00 0.00 0.00
20260505163250 83 228 8.0 17.0 0.00 0.00 0.00
20260505162743 81 219 9.0 19.0 0.00 0.00 0.00
20260505162237 81 212 17.0 13.0 0.00 0.00 0.00
20260505161731 82 193 7.0 16.0 0.00 0.00 0.00
20260505160721 81 236 7.0 17.0 0.00 0.00 0.00
20260505160216 80 253 9.0 18.0 0.00 0.00 0.00
20260505153146 80 163 14.0 19.0 0.00 0.00 0.00
20260505152637 80 212 12.0 16.0 0.00 0.00 0.00
20260505152133 80 269 14.0 18.0 0.00 0.00 0.00
20260505151628 79 181 11.0 18.0 0.00 0.00 0.00
20260505151124 79 217 8.0 16.0 0.00 0.00 0.00
20260505150619 79 194 14.0 17.0 0.00 0.00 0.00
20260505150114 79 186 15.0 19.0 0.00 0.00 0.00
20260505140518 75 215 8.0 12.0 0.00 0.00 0.00